Location: Pensacola
(30.4142°N, 87.2155°W)
Time: 05:48:14
(UTC-06:00)

Cosmos 1741 Rocket - Visible Passes

Search period start: 08 December 2023 00:00
Search period end: 18 December 2023 00:00
Orbit: 759 x 781 km, 74.0° (Epoch: 08 December)

Date Brightness Start Highest point End Pass type
(mag) Time Alt. Az. Time Alt. Az. Time Alt. Az.
09 Dec 6.0 19:03:59 10° NNW 19:05:15 18° NNW 19:05:15 18° NNW visible
10 Dec 4.4 18:27:47 10° N 18:32:04 43° NE 18:32:04 43° NE visible
10 Dec 6.8 20:11:37 10° WNW 20:12:38 13° WNW 20:12:38 13° WNW visible
11 Dec 4.9 17:51:57 10° N 17:56:24 27° ENE 18:00:50 10° SE visible
11 Dec 5.9 19:33:56 10° NW 19:38:22 27° W 19:42:47 10° SSW visible
12 Dec 5.5 17:16:43 10° NNE 17:19:47 15° ENE 17:22:51 10° E visible
12 Dec 4.8 18:57:01 10° NNW 19:02:08 50° WSW 19:07:13 10° S visible
13 Dec 3.9 18:20:29 10° NNW 18:25:49 89° ENE 18:31:08 10° SSE visible
14 Dec 4.2 17:44:16 10° N 17:49:25 49° ENE 17:54:31 10° SE visible
14 Dec 6.9 19:28:13 10° WNW 19:30:59 14° W 19:33:46 10° SW visible
15 Dec 4.9 17:08:24 10° N 17:12:54 27° ENE 17:17:23 10° SE visible
15 Dec 6.1 18:50:28 10° NW 18:54:51 27° W 18:59:12 10° SSW visible
16 Dec 7.1 05:59:53 10° SE 06:02:53 16° E 06:05:55 10° ENE visible
16 Dec 5.0 18:13:31 10° NNW 18:18:37 48° WSW 18:23:41 10° S visible
17 Dec 4.1 17:36:58 10° NNW 17:42:18 89° WSW 17:47:36 10° SSE visible
